User: anonymous   Login
Location: Azul
(36.7830°S, 59.8500°W)
Time: 21:37:12
(UTC-03:00)
Language:

AO-27 - Orbit

View from above orbital plane
View from above orbital plane
View from above satellite
View from above satellite

Ground track
Ground track

The orbit data is extracted from the following two-line orbital elements,

1 22825U 93061C   21296.06213392  .00000001  00000-0  18403-4 0  9995
2 22825  98.9122 316.7779 0008907  29.8435 330.3252 14.30128302464227
Epoch (UTC): 23 October 2021 01:29:28
Eccentricity: 0.0008907
inclination: 98.9122°
perigee height: 785 km
apogee height: 797 km
right ascension of ascending node: 316.7779°
argument of perigee: 29.8435°
revolutions per day: 14.30128302
mean anomaly at epoch: 330.3252°
orbit number at epoch: 46422

The dashed part of the orbit path shows where the satellite is in the earth's shadow,  

DLR